OAL2ES LGAV-LGMK

Flight info

Callsign OAL2ES
Flight time 0h 24m
Altitude 10000
Route KEA L995 VARIX
Aircraft AT46/M-SDFGIRY/S

Departure

Time 2026-04-24 21:28
Airport Athens Eleftherios Venizelos International Airport (LGAV)

Arrival

Time 2026-04-24 21:53
Airport Mykonos Island National Airport (LGMK)
Time Latitude Longitude Altitude Speed Heading
2026-04-24 21:12 37.92422 23.93872 267 ft 0 kts 233°
2026-04-24 21:19 37.92424 23.93876 267 ft 0 kts 218°
2026-04-24 21:19 37.92425 23.93877 267 ft 0 kts 203°
2026-04-24 21:19 37.92416 23.93886 267 ft 4 kts 110°
2026-04-24 21:20 37.92421 23.93905 268 ft 0 kts 46°
2026-04-24 21:24 37.92461 23.93957 270 ft 23 kts 45°
2026-04-24 21:24 37.92633 23.94147 275 ft 39 kts 37°
2026-04-24 21:24 37.92831 23.94263 275 ft 27 kts
2026-04-24 21:24 37.92972 23.94165 274 ft 23 kts 307°
2026-04-24 21:25 37.93062 23.94007 268 ft 21 kts 313°
2026-04-24 21:25 37.93240 23.93736 266 ft 56 kts 303°
2026-04-24 21:25 37.93256 23.93362 270 ft 41 kts 221°
2026-04-24 21:25 37.93038 23.93164 264 ft 36 kts 209°
2026-04-24 21:26 37.92875 23.93020 260 ft 32 kts 220°
2026-04-24 21:26 37.92725 23.92856 260 ft 27 kts 219°
2026-04-24 21:26 37.92442 23.92594 260 ft 57 kts 219°
2026-04-24 21:26 37.92344 23.92494 259 ft 9 kts 219°
2026-04-24 21:27 37.92085 23.92237 253 ft 83 kts 220°
2026-04-24 21:27 37.92063 23.91911 255 ft 15 kts 21°
2026-04-24 21:27 37.92091 23.91935 255 ft 19 kts 24°
2026-04-24 21:27 37.92255 23.92019 255 ft 59 kts 32°
2026-04-24 21:28 37.93029 23.92706 301 ft 138 kts 32°
2026-04-24 21:28 37.93922 23.93214 830 ft 149 kts 14°
2026-04-24 21:28 37.94911 23.93735 1348 ft 167 kts 36°
2026-04-24 21:28 37.95827 23.94785 1874 ft 187 kts 42°
2026-04-24 21:29 37.96801 23.95969 2395 ft 202 kts 42°
2026-04-24 21:29 37.97880 23.97188 2908 ft 213 kts 39°
2026-04-24 21:29 37.99066 23.98366 3416 ft 220 kts 36°
2026-04-24 21:29 38.00329 23.99522 3925 ft 227 kts 34°
2026-04-24 21:30 38.01628 24.00695 4428 ft 232 kts 35°
2026-04-24 21:30 38.02956 24.01888 4942 ft 236 kts 35°
2026-04-24 21:30 38.04304 24.03094 5442 ft 239 kts 34°
2026-04-24 21:30 38.05659 24.04330 5952 ft 241 kts 35°
2026-04-24 21:31 38.07025 24.05588 6463 ft 244 kts 35°
2026-04-24 21:31 38.08403 24.06856 6952 ft 244 kts 37°
2026-04-24 21:31 38.09185 24.07860 7276 ft 244 kts 56°
2026-04-24 21:31 38.09629 24.09924 7781 ft 249 kts 90°
2026-04-24 21:32 38.09060 24.12001 8288 ft 257 kts 124°
2026-04-24 21:32 38.07655 24.13402 8807 ft 263 kts 154°
2026-04-24 21:32 38.05957 24.14298 9331 ft 265 kts 154°
2026-04-24 21:32 38.04288 24.15315 9860 ft 266 kts 150°
2026-04-24 21:33 38.02641 24.16516 9963 ft 281 kts 144°
2026-04-24 21:33 38.01066 24.18067 9991 ft 292 kts 136°
2026-04-24 21:33 37.99634 24.19903 10005 ft 294 kts 130°
2026-04-24 21:33 37.98267 24.21837 10012 ft 295 kts 130°
2026-04-24 21:34 37.96898 24.23771 10012 ft 295 kts 130°
2026-04-24 21:34 37.95498 24.25673 10012 ft 295 kts 131°
2026-04-24 21:34 37.94082 24.27561 10012 ft 295 kts 131°
2026-04-24 21:34 37.92688 24.29419 10015 ft 295 kts 131°
2026-04-24 21:35 37.91254 24.31325 10013 ft 295 kts 131°
2026-04-24 21:35 37.89854 24.33187 10012 ft 295 kts 131°
2026-04-24 21:35 37.88439 24.35067 10011 ft 295 kts 132°
2026-04-24 21:35 37.87023 24.36948 10008 ft 295 kts 132°
2026-04-24 21:36 37.85609 24.38827 10009 ft 295 kts 132°
2026-04-24 21:36 37.84187 24.40711 10010 ft 295 kts 132°
2026-04-24 21:36 37.82769 24.42592 10008 ft 295 kts 132°
2026-04-24 21:36 37.81353 24.44468 10010 ft 295 kts 132°
2026-04-24 21:37 37.79925 24.46355 10006 ft 295 kts 132°
2026-04-24 21:37 37.78509 24.48233 10009 ft 295 kts 132°
2026-04-24 21:37 37.77087 24.50115 10009 ft 296 kts 132°
2026-04-24 21:37 37.75664 24.51995 10009 ft 296 kts 132°
2026-04-24 21:38 37.74241 24.53875 10011 ft 296 kts 132°
2026-04-24 21:38 37.72819 24.55752 10008 ft 295 kts 132°
2026-04-24 21:38 37.71398 24.57623 10009 ft 295 kts 132°
2026-04-24 21:38 37.69996 24.59473 10012 ft 295 kts 132°
2026-04-24 21:39 37.68560 24.61368 10015 ft 295 kts 132°
2026-04-24 21:39 37.67140 24.63236 10012 ft 295 kts 132°
2026-04-24 21:39 37.65719 24.65107 10007 ft 295 kts 132°
2026-04-24 21:39 37.64314 24.66955 10006 ft 295 kts 132°
2026-04-24 21:40 37.62895 24.68819 10008 ft 295 kts 132°
2026-04-24 21:40 37.61477 24.70684 10003 ft 295 kts 132°
2026-04-24 21:40 37.60057 24.72548 10007 ft 295 kts 132°
2026-04-24 21:40 37.58638 24.74408 10002 ft 295 kts 132°
2026-04-24 21:41 37.57224 24.76265 9999 ft 295 kts 132°
2026-04-24 21:41 37.55809 24.78122 9999 ft 295 kts 133°
2026-04-24 21:41 37.54388 24.79981 9996 ft 295 kts 132°
2026-04-24 21:41 37.52964 24.81840 9998 ft 295 kts 132°
2026-04-24 21:42 37.51543 24.83702 9992 ft 295 kts 132°
2026-04-24 21:42 37.50123 24.85562 9994 ft 295 kts 132°
2026-04-24 21:42 37.48705 24.87415 9994 ft 295 kts 133°
2026-04-24 21:42 37.47283 24.89274 9994 ft 295 kts 133°
2026-04-24 21:43 37.45857 24.91133 9995 ft 295 kts 133°
2026-04-24 21:43 37.44431 24.92992 9997 ft 295 kts 132°
2026-04-24 21:43 37.43008 24.94849 9994 ft 296 kts 132°
2026-04-24 21:43 37.41576 24.96715 9996 ft 296 kts 132°
2026-04-24 21:44 37.40150 24.98570 9605 ft 301 kts 132°
2026-04-24 21:44 37.38698 25.00457 9192 ft 300 kts 132°
2026-04-24 21:44 37.37400 25.02483 8790 ft 297 kts 115°
2026-04-24 21:44 37.36956 25.04964 8365 ft 291 kts 89°
2026-04-24 21:45 37.37247 25.07462 7994 ft 289 kts 75°
2026-04-24 21:45 37.37855 25.09858 7640 ft 287 kts 70°
2026-04-24 21:45 37.38519 25.12211 7306 ft 285 kts 70°
2026-04-24 21:45 37.39164 25.14559 6973 ft 283 kts 71°
2026-04-24 21:46 37.39759 25.16912 6614 ft 281 kts 72°
2026-04-24 21:46 37.40331 25.19264 6267 ft 281 kts 72°
2026-04-24 21:46 37.40904 25.21588 5906 ft 279 kts 72°
2026-04-24 21:46 37.41472 25.23902 5556 ft 277 kts 72°
2026-04-24 21:47 37.42037 25.26200 5099 ft 276 kts 72°
2026-04-24 21:47 37.42599 25.28499 4626 ft 274 kts 72°
2026-04-24 21:47 37.43152 25.30771 4132 ft 271 kts 72°
2026-04-24 21:47 37.43412 25.33063 3620 ft 259 kts 94°
2026-04-24 21:48 37.42865 25.34890 3915 ft 191 kts 112°
2026-04-24 21:48 37.42257 25.36274 4011 ft 155 kts 117°
2026-04-24 21:48 37.41701 25.37266 4152 ft 143 kts 120°
2026-04-24 21:48 37.41021 25.38362 3639 ft 169 kts 124°
2026-04-24 21:49 37.40242 25.39452 3127 ft 167 kts 128°
2026-04-24 21:49 37.39438 25.40500 2619 ft 167 kts 128°
2026-04-24 21:49 37.38640 25.41530 2140 ft 168 kts 128°
2026-04-24 21:49 37.37845 25.42498 2034 ft 151 kts 135°
2026-04-24 21:50 37.36803 25.42761 2008 ft 156 kts 192°
2026-04-24 21:50 37.36022 25.41977 2002 ft 139 kts 252°
2026-04-24 21:50 37.36080 25.40920 1999 ft 119 kts 313°
2026-04-24 21:50 37.36613 25.40120 1955 ft 124 kts 320°
2026-04-24 21:51 37.37208 25.39292 1835 ft 130 kts 322°
2026-04-24 21:51 37.37876 25.38515 1713 ft 131 kts 328°
2026-04-24 21:51 37.38581 25.37832 1596 ft 130 kts 329°
2026-04-24 21:51 37.39285 25.37123 1482 ft 130 kts 331°
2026-04-24 21:52 37.40038 25.36487 1299 ft 131 kts 333°
2026-04-24 21:52 37.40873 25.35994 933 ft 135 kts 345°
2026-04-24 21:52 37.41726 25.35570 759 ft 126 kts 342°
2026-04-24 21:52 37.42541 25.35226 529 ft 123 kts 343°
2026-04-24 21:53 37.43304 25.34897 416 ft 107 kts 342°
2026-04-24 21:53 37.43663 25.34780 416 ft 15 kts 350°
2026-04-24 21:53 37.43673 25.34711 414 ft 12 kts 197°
2026-04-24 21:53 37.43578 25.34680 416 ft 18 kts 194°
2026-04-24 21:54 37.43515 25.34624 416 ft 0 kts 249°